This is the latest recevied weather packets stored in our database for station/object K5OBH. If no packets are shown the sender has not sent any weather packets the latest 10 day(s).
| Time | Temp. | Humidity | Pressure | Rain* | Wind** | Luminosity | Snow |
|---|---|---|---|---|---|---|---|
| 1777511001 | 16.67° C | 61% | 1015.7 hPa | 0 mm | - | 9 W/m² | - |
| 1777510698 | 17.22° C | 61% | 1015.6 hPa | 0 mm | - | 12 W/m² | - |
| 1777510394 | 17.22° C | 61% | 1015.4 hPa | 0 mm | - | 16 W/m² | - |
| 1777510090 | 17.22° C | 60% | 1015.4 hPa | 0 mm | - | 18 W/m² | - |
| 1777509788 | 17.22° C | 59% | 1015.4 hPa | 0 mm | - | 22 W/m² | - |
| 1777509482 | 17.78° C | 59% | 1015.3 hPa | 0 mm | - | 25 W/m² | - |
| 1777509181 | 17.78° C | 59% | 1015.2 hPa | 0 mm | - | 32 W/m² | - |
| 1777508877 | 17.78° C | 57% | 1015.5 hPa | 0 mm | - | 39 W/m² | - |
| 1777508574 | 17.78° C | 57% | 1015.5 hPa | 0 mm | - | 54 W/m² | - |
| 1777508271 | 18.33° C | 55% | 1015.2 hPa | 0 mm | - | 65 W/m² | - |
| 1777507969 | 18.33° C | 54% | 1015.5 hPa | 0 mm | - | 77 W/m² | - |
| 1777507665 | 18.33° C | 54% | 1015.1 hPa | 0 mm | - | 80 W/m² | - |
| 1777507362 | 18.33° C | 55% | 1015.2 hPa | 0 mm | - | 99 W/m² | - |
| 1777507059 | 18.33° C | 54% | 1015.2 hPa | 0 mm | - | 109 W/m² | - |
| 1777506757 | 18.33° C | 54% | 1015.3 hPa | 0 mm | - | 81 W/m² | - |
| 1777506453 | 18.33° C | 54% | 1015.2 hPa | 0 mm | - | 84 W/m² | - |
| 1777506149 | 18.33° C | 54% | 1015.5 hPa | 0 mm | - | 70 W/m² | - |
| 1777505845 | 18.89° C | 53% | 1015 hPa | 0 mm | - | 72 W/m² | - |
| 1777505542 | 18.89° C | 53% | 1015.1 hPa | 0 mm | - | 142 W/m² | - |
| 1777505238 | 18.89° C | 53% | 1015.2 hPa | 0 mm | - | 154 W/m² | - |
| 1777504935 | 18.89° C | 53% | 1015.3 hPa | 0 mm | - | 167 W/m² | - |
| 1777504632 | 19.44° C | 53% | 1015.1 hPa | 0 mm | - | 178 W/m² | - |
| 1777504329 | 19.44° C | 53% | 1015.2 hPa | 0 mm | - | 192 W/m² | - |
| 1777504023 | 18.89° C | 53% | 1015 hPa | 0 mm | - | 204 W/m² | - |
| 1777503720 | 19.44° C | 53% | 1015 hPa | 0 mm | - | 219 W/m² | - |
* Rain latest hour (hover to see other rain measurements)
** Current wind speed in m/s (hover to see current wind gust speed)